23:58
Airports
History
Links
Donate
Help keep this website running!
PayPal
Bitcoin
This page is community maintained. The information is intended for PC simulator navigation or reference.
Always use approved charts for navigation.
CYCN
COCHRANE
COCHRANE (CYCN)
Cochrane, Ontario, Canada
(U)
Lat/Lng:49° 6' 20" N / 81° 0' 49" W
49.105556 / -81.013611
Elevation:861'ft / 262mMSL
ID / ICAO:CYCN
Runways:1
Longest:13-31
Asphalt 1,384m / 4,541ft
Nearby Weather23:00 GMT 2017-12-12
Nearby weather at CYTS, Timmins located 40.5 nautical miles from CYCN
Altimeter: 29.85
Visibility: 10.0 statute miles
Wind: 9 knots (from 320°)
Temp: -20°c / -4°f
Humidity: 76.8%

METAR: CYTS 122300Z 32009G15KT 10SM -SN DRSN OVC019 M20/M23 A2985 RMK SC8 SLP143

(Powered by phpweather)
Airport Radio Frequencies
CTAF: 122.8
Nearby VORs <50NM
Nearby NDBs
Runway 13 / 31
Dimensions:1384 x 30.5m 4541' x 100'ft
Surface:Asphalt
Edge Lights:Medium intensity
Runway 13 [A]Runway 31 [B]
Heading:119°TH 299°TH
Lat:
Lng:
49° 6' 31"N
81° 1' 19"W
49° 6' 9"N
81° 0' 19"W
TDZ:Yes, lighted
User Notes and Comments
49° 6' 20" N / 81° 0' 49" W
Distance To
Airport ID:
Nearby Airports
(U) Iroquois Falls 27.1 NM
NE4 SSE 158°
(U) Timmins 40.5 NM
CYTS ( WX ) SSW 204°
(U) KAPUSKASING 68.9 NM
CYYU ( WX ) WNW 288°
(U) KIRKLAND LAKE 77.8 NM
CYKX SE 142°
(U) La Sarre 84.2 NM
SR8 E 98°
(U) TIMISKAMING RGNL 111.1 NM
CYXR ( WX ) SSE 151°
(U) Rouyn-noranda 117.2 NM
CYUY ( WX ) ESE 122°
VFR Chart
Flight Planning at SkyVector.com